CW3202 Weather Reports


Display with metric or nautical units.
time (UTC)temp
F
wind
direction
speed
MPH
gust
MPH
rain 1hr
in
rain 24hr
in
rain mn
in
humidity
%
barometer
mb
20260902044624 56 55 1.0 2.0 0.00 0.00 0.00 97 1010.7
20260902044125 56 55 1.0 2.0 0.00 0.00 0.00 97 1010.7
20260902043625 56 55 2.0 2.0 0.00 0.00 0.00 97 1010.7
20260902043124 56 55 0.0 1.0 0.00 0.00 0.00 97 1010.8
20260902042424 56 55 0.0 1.0 0.00 0.00 0.00 97 1010.8
20260902041724 56 55 1.0 1.0 0.00 0.00 0.00 97 1010.8
20260902041225 56 55 0.0 1.0 0.00 0.00 0.00 96 1010.8
20260902040725 57 55 1.0 1.0 0.00 0.00 0.00 96 1010.7
20260902040225 57 55 0.0 2.0 0.00 0.00 0.00 96 1010.7
20260902035725 57 55 0.0 2.0 0.00 0.00 0.00 96 1010.7
20260902035125 57 55 1.0 1.0 0.00 0.00 0.00 94 1010.7
20260902034525 57 55 0.0 1.0 0.00 0.00 0.00 94 1010.7
20260902034025 58 55 1.0 2.0 0.00 0.00 0.00 94 1010.6
20260902033525 58 55 0.0 2.0 0.00 0.00 0.00 95 1010.5
20260902033024 58 55 0.0 1.0 0.00 0.00 0.00 94 1010.5
20260902032525 59 55 1.0 1.0 0.00 0.00 0.00 94 1010.4
20260902032024 59 54 0.0 1.0 0.00 0.00 0.00 94 1010.5
20260902031524 60 54 0.0 2.0 0.00 0.00 0.00 94 1010.5
20260902031024 60 54 1.0 2.0 0.00 0.00 0.00 93 1010.5
20260902030524 60 54 0.0 3.0 0.00 0.00 0.00 93 1010.5
20260902025225 61 54 3.0 3.0 0.00 0.00 0.00 92 1010.5
20260902024724 61 54 2.0 3.0 0.00 0.00 0.00 92 1010.4
20260902024025 61 55 2.0 4.0 0.00 0.00 0.00 92 1010.5
20260902023525 62 44 3.0 4.0 0.00 0.00 0.00 91 1010.5
20260902023024 62 47 2.0 3.0 0.00 0.00 0.00 91 1010.5
20260902022524 62 72 1.0 3.0 0.00 0.00 0.00 91 1010.5
20260902022025 62 34 3.0 3.0 0.00 0.00 0.00 91 1010.5
20260902021525 62 22 3.0 3.0 0.00 0.00 0.00 91 1010.4
20260902021024 62 22 2.0 4.0 0.00 0.00 0.00 91 1010.4
20260902020524 62 56 2.0 4.0 0.00 0.00 0.00 91 1010.4
20260902020025 62 5 4.0 4.0 0.00 0.00 0.00 91 1010.4
20260902015524 62 30 2.0 4.0 0.00 0.00 0.00 91 1010.4
20260902014825 62 46 3.0 5.0 0.00 0.00 0.00 90 1010.4
20260902014325 62 67 3.0 5.0 0.00 0.00 0.00 90 1010.4
20260902013825 62 29 3.0 4.0 0.00 0.00 0.00 90 1010.4
20260902013324 62 50 3.0 3.0 0.00 0.00 0.00 89 1010.5
20260902012825 62 49 3.0 3.0 0.00 0.00 0.00 88 1010.5
20260902012325 62 57 2.0 3.0 0.00 0.00 0.00 88 1010.4
20260902011824 62 37 3.0 4.0 0.00 0.00 0.00 89 1010.3
20260902011324 62 34 2.0 4.0 0.00 0.00 0.00 88 1010.4
20260902010624 62 29 3.0 4.0 0.00 0.00 0.00 88 1010.3
20260902010125 62 9 4.0 4.0 0.00 0.00 0.00 88 1010.2
20260902005625 63 18 3.0 4.0 0.00 0.00 0.00 87 1010.3
20260902005124 63 355 4.0 5.0 0.00 0.00 0.00 86 1010.2
20260902004624 63 360 3.0 5.0 0.00 0.00 0.00 86 1010.2
20260902004124 63 20 3.0 4.0 0.00 0.00 0.00 84 1010.3
20260902003624 63 51 2.0 4.0 0.00 0.00 0.00 85 1010.3
20260902003125 64 41 2.0 4.0 0.00 0.00 0.00 83 1010.3
20260902002624 64 9 4.0 5.0 0.00 0.00 0.00 82 1010.3
20260902002124 64 155 1.0 5.0 0.00 0.00 0.00 82 1010.3
20260902001625 64 84 5.0 5.0 0.00 0.00 0.00 83 1010.4
20260902001124 64 86 0.0 4.0 0.00 0.00 0.00 86 1010.3
20260902000624 64 86 0.0 4.0 0.00 0.00 0.00 83 1010.3
20260902000125 64 44 3.0 4.0 0.00 0.00 0.00 83 1010.3
20260901235625 64 183 1.0 3.0 0.00 0.00 0.00 82 1010.2
20260901235124 64 360 1.0 2.0 0.00 0.00 0.00 83 1010.4
20260901234225 65 155 2.0 4.0 0.00 0.00 0.00 82 1010.3
20260901233324 64 41 3.0 4.0 0.00 0.00 0.00 82 1010.4
20260901232825 64 74 3.0 4.0 0.00 0.00 0.00 81 1010.5
20260901232325 65 184 1.0 2.0 0.00 0.00 0.00 82 1010.4
20260901231825 65 218 2.0 4.0 0.00 0.00 0.00 81 1010.4
20260901231324 64 183 2.0 4.0 0.00 0.00 0.00 81 1010.5
20260901230825 64 360 1.0 4.0 0.00 0.00 0.00 84 1010.5
20260901230325 65 123 1.0 4.0 0.00 0.00 0.00 84 1010.5
20260901225825 65 67 2.0 4.0 0.00 0.00 0.00 82 1010.5
20260901225324 65 186 0.0 3.0 0.00 0.00 0.00 82 1010.5
20260901224825 65 177 1.0 3.0 0.00 0.00 0.00 82 1010.6
20260901224324 64 150 3.0 4.0 0.00 0.00 0.00 82 1010.6
20260901223824 64 161 2.0 4.0 0.00 0.00 0.00 81 1010.5
20260901223124 64 173 1.0 4.0 0.00 0.00 0.00 81 1010.6
20260901222625 65 114 2.0 4.0 0.00 0.00 0.00 81 1010.5
20260901222125 65 113 4.0 4.0 0.00 0.00 0.00 81 1010.5
20260901221625 65 160 0.0 3.0 0.00 0.00 0.00 82 1010.5
20260901221030 65 127 1.0 3.0 0.00 0.00 0.00 82 1010.5
20260901220525 65 331 0.0 2.0 0.00 0.00 0.00 83 1010.4
20260901220025 64 329 0.0 2.0 0.00 0.00 0.00 83 1010.4
20260901215524 64 293 2.0 3.0 0.00 0.00 0.00 83 1010.4
20260901215025 64 155 0.0 3.0 0.00 0.00 0.00 82 1010.3
20260901214324 64 153 1.0 4.0 0.00 0.00 0.00 82 1010.4
20260901213824 64 163 4.0 4.0 0.00 0.00 0.00 83 1010.4
20260901213325 64 119 0.0 2.0 0.00 0.00 0.00 85 1010.5
20260901212824 63 162 1.0 4.0 0.00 0.00 0.00 86 1010.5
20260901212124 63 180 2.0 5.0 0.00 0.00 0.00 86 1010.5
20260901211624 63 171 0.0 5.0 0.00 0.00 0.00 86 1010.5
20260901211124 64 175 1.0 4.0 0.00 0.00 0.00 85 1010.6
20260901210624 64 169 0.0 2.0 0.00 0.00 0.00 85 1010.6
20260901205925 64 120 2.0 3.0 0.00 0.00 0.00 82 1010.5
20260901205424 64 25 2.0 4.0 0.00 0.00 0.00 80 1010.4
20260901204925 64 38 2.0 5.0 0.00 0.00 0.00 80 1010.3
20260901204425 64 22 4.0 5.0 0.00 0.00 0.00 81 1010.3
20260901203925 64 35 3.0 5.0 0.00 0.00 0.00 81 1010.4
20260901203424 64 31 4.0 4.0 0.00 0.00 0.00 81 1010.4
20260901202924 64 57 2.0 4.0 0.00 0.00 0.00 81 1010.5
20260901202424 64 59 2.0 2.0 0.00 0.00 0.00 81 1010.5
20260901201925 64 42 1.0 3.0 0.00 0.00 0.00 81 1010.5
20260901201424 64 41 2.0 3.0 0.00 0.00 0.00 81 1010.5
20260901200924 64 42 2.0 3.0 0.00 0.00 0.00 81 1010.5
20260901200424 64 87 1.0 3.0 0.00 0.00 0.00 80 1010.5
20260901195924 64 98 1.0 2.0 0.00 0.00 0.00 80 1010.5
20260901195225 64 84 1.0 3.0 0.00 0.00 0.00 81 1010.5
20260901194724 64 84 2.0 3.0 0.00 0.00 0.00 81 1010.5
20260901194225 64 83 2.0 5.0 0.00 0.00 0.00 81 1010.5
20260901193724 64 29 1.0 5.0 0.00 0.00 0.00 81 1010.5
20260901193224 64 49 3.0 3.0 0.00 0.00 0.00 81 1010.5
20260901192725 64 175 0.0 1.0 0.00 0.00 0.00 81 1010.5
20260901192225 63 175 1.0 2.0 0.00 0.00 0.00 82 1010.5
20260901191724 63 175 1.0 2.0 0.00 0.00 0.00 82 1010.5
20260901191025 63 175 1.0 2.0 0.00 0.00 0.00 82 1010.5
20260901190525 63 175 1.0 2.0 0.00 0.00 0.00 83 1010.6
20260901190024 63 175 2.0 2.0 0.00 0.00 0.00 83 1010.6
20260901185525 63 175 1.0 2.0 0.00 0.00 0.00 83 1010.6
20260901185024 63 175 0.0 2.0 0.00 0.00 0.00 82 1010.6
20260901184525 63 175 1.0 3.0 0.00 0.00 0.00 83 1010.7
20260901184025 63 175 2.0 3.0 0.00 0.00 0.00 82 1010.8
20260901183524 64 132 3.0 3.0 0.00 0.00 0.00 82 1010.8
20260901183024 64 36 0.0 3.0 0.00 0.00 0.00 80 1010.7
20260901182524 64 36 0.0 3.0 0.00 0.00 0.00 80 1010.8
20260901182025 64 74 2.0 2.0 0.00 0.00 0.00 80 1010.8
20260901181525 64 74 0.0 4.0 0.00 0.00 0.00 80 1010.8
20260901181025 64 65 0.0 4.0 0.00 0.00 0.00 81 1010.7
20260901180525 63 360 4.0 4.0 0.00 0.00 0.00 81 1010.7
20260901180025 63 17 4.0 5.0 0.00 0.00 0.00 81 1010.7
20260901175525 63 360 3.0 5.0 0.00 0.00 0.00 80 1010.7
20260901175024 64 360 3.0 5.0 0.00 0.00 0.00 80 1010.8
20260901174525 64 360 4.0 5.0 0.00 0.00 0.00 81 1010.7
20260901173925 63 360 3.0 3.0 0.00 0.00 0.00 81 1010.7
20260901173425 63 61 1.0 5.0 0.00 0.00 0.00 82 1010.7
20260901172924 63 49 1.0 5.0 0.00 0.00 0.00 82 1010.6
20260901172424 63 42 3.0 5.0 0.00 0.00 0.00 83 1010.5
20260901171124 62 90 2.0 4.0 0.00 0.00 0.00 83 1010.5
20260901170624 62 360 3.0 3.0 0.00 0.00 0.00 84 1010.5
20260901165724 62 42 3.0 4.0 0.00 0.00 0.00 84 1010.4
20260901165224 62 360 2.0 3.0 0.00 0.00 0.00 84 1010.4
20260901164725 62 360 2.0 3.0 0.00 0.00 0.00 85 1010.3
20260901164225 61 360 1.0 4.0 0.00 0.00 0.00 85 1010.3
20260901163524 61 18 3.0 4.0 0.00 0.00 0.00 86 1010.4
20260901163025 61 35 3.0 4.0 0.00 0.00 0.00 86 1010.5
20260901162524 61 25 2.0 4.0 0.00 0.00 0.00 86 1010.6
20260901162025 61 36 2.0 3.0 0.00 0.00 0.00 86 1010.6
20260901161525 61 31 3.0 3.0 0.00 0.00 0.00 87 1010.6
20260901161024 61 46 3.0 3.0 0.00 0.00 0.00 87 1010.6
20260901160525 61 66 1.0 3.0 0.00 0.00 0.00 87 1010.6
20260901160025 60 66 0.0 3.0 0.00 0.00 0.00 88 1010.7
20260901155524 60 66 2.0 3.0 0.00 0.00 0.00 88 1010.7
20260901155024 60 42 2.0 3.0 0.00 0.00 0.00 88 1010.7
20260901154524 60 40 1.0 3.0 0.00 0.00 0.00 88 1010.6
20260901154024 60 40 1.0 3.0 0.00 0.00 0.00 89 1010.8
20260901153524 60 54 3.0 3.0 0.00 0.00 0.00 89 1010.7
20260901153024 60 56 1.0 2.0 0.00 0.00 0.00 90 1010.8
20260901152524 60 360 1.0 2.0 0.00 0.00 0.00 90 1010.7
20260901152024 60 198 0.0 2.0 0.00 0.00 0.00 91 1010.6
20260901151324 59 197 1.0 2.0 0.00 0.00 0.00 91 1010.7
20260901150824 59 198 2.0 2.0 0.00 0.00 0.00 92 1010.6
20260901150324 59 198 1.0 1.0 0.00 0.00 0.00 92 1010.7
20260901145624 59 198 1.0 2.0 0.00 0.00 0.00 92 1010.7
20260901145125 58 198 2.0 2.0 0.00 0.00 0.00 92 1010.7
20260901144626 58 198 1.0 1.0 0.00 0.00 0.00 92 1010.6
20260901144124 58 198 0.0 1.0 0.00 0.00 0.00 93 1010.6
20260901143624 58 198 0.0 1.0 0.00 0.00 0.00 93 1010.6
20260901142924 58 198 0.0 1.0 0.00 0.00 0.00 93 1010.7
20260901142424 58 198 0.0 0.0 0.00 0.00 0.00 93 1010.7
20260901141924 58 198 0.0 0.0 0.00 0.00 0.00 93 1010.6
20260901141425 58 198 0.0 0.0 0.00 0.00 0.00 93 1010.5
20260901140925 58 198 0.0 0.0 0.00 0.00 0.00 93 1010.5
20260901140424 58 198 0.0 0.0 0.00 0.00 0.00 93 1010.5
20260901135724 58 198 0.0 0.0 0.00 0.00 0.00 93 1010.5
20260901135224 58 198 0.0 0.0 0.00 0.00 0.00 93 1010.5
20260901134724 58 198 0.0 0.0 0.00 0.00 0.00 93 1010.6
20260901134225 58 198 0.0 0.0 0.00 0.00 0.00 93 1010.5
20260901133724 58 198 0.0 0.0 0.00 0.00 0.00 93 1010.5
20260901133225 58 198 0.0 0.0 0.00 0.00 0.00 93 1010.4
20260901132724 58 198 0.0 0.0 0.00 0.00 0.00 92 1010.4
20260901132224 58 198 0.0 0.0 0.00 0.00 0.00 93 1010.4
20260901131724 58 198 0.0 0.0 0.00 0.00 0.00 93 1010.4
20260901131225 58 198 0.0 0.0 0.00 0.00 0.00 93 1010.4
20260901130725 58 198 0.0 0.0 0.00 0.00 0.00 93 1010.4
20260901130225 58 198 0.0 0.0 0.00 0.00 0.00 93 1010.4
20260901125324 58 198 0.0 0.0 0.00 0.00 0.00 93 1010.4
20260901124825 58 198 0.0 0.0 0.00 0.00 0.00 92 1010.4
20260901124324 58 198 0.0 0.0 0.00 0.00 0.00 92 1010.4
20260901123824 58 198 0.0 0.0 0.00 0.00 0.00 92 1010.5
20260901123325 58 198 0.0 0.0 0.00 0.00 0.00 92 1010.5
20260901122824 58 198 0.0 0.0 0.00 0.00 0.00 92 1010.5
20260901122324 58 198 0.0 0.0 0.00 0.00 0.00 92 1010.5
20260901121824 58 198 0.0 0.0 0.00 0.00 0.00 92 1010.4
20260901121326 58 198 0.0 0.0 0.00 0.00 0.00 92 1010.4
20260901120825 58 198 0.0 0.0 0.00 0.00 0.00 92 1010.4
20260901115924 58 198 0.0 1.0 0.00 0.00 0.00 92 1010.5
20260901115424 58 198 0.0 1.0 0.00 0.00 0.00 92 1010.5
20260901114924 58 198 0.0 2.0 0.00 0.00 0.00 92 1010.5
20260901114224 58 198 2.0 2.0 0.00 0.00 0.00 92 1010.6
20260901113724 58 198 0.0 0.0 0.00 0.00 0.00 91 1010.6
20260901113225 58 198 0.0 1.0 0.00 0.00 0.00 92 1010.5
20260901112724 58 198 0.0 1.0 0.00 0.00 0.00 91 1010.5
20260901112224 58 198 0.0 1.0 0.00 0.00 0.00 91 1010.5
20260901111724 58 198 1.0 1.0 0.00 0.00 0.00 91 1010.4
20260901111224 58 198 1.0 1.0 0.00 0.00 0.00 91 1010.3
20260901110725 58 198 0.0 3.0 0.00 0.00 0.00 91 1010.3
20260901110224 58 198 0.0 3.0 0.00 0.00 0.00 91 1010.3
20260901105724 58 197 2.0 5.0 0.00 0.00 0.00 91 1010.2
20260901105225 58 200 2.0 5.0 0.00 0.00 0.00 91 1010.2
20260901104725 58 174 3.0 3.0 0.00 0.00 0.00 92 1010.2
20260901104224 58 173 0.0 5.0 0.00 0.00 0.00 92 1010.2
20260901103725 58 175 2.0 5.0 0.00 0.00 0.00 92 1010.2
20260901103024 58 141 1.0 3.0 0.00 0.00 0.00 92 1010.2
20260901102525 58 154 2.0 3.0 0.00 0.00 0.00 92 1010.2
20260901102025 58 171 1.0 2.0 0.00 0.00 0.00 92 1010.3
20260901101525 58 192 1.0 2.0 0.00 0.00 0.00 92 1010.3
20260901100625 58 192 2.0 2.0 0.00 0.00 0.00 92 1010.2
20260901100124 58 191 1.0 2.0 0.00 0.00 0.00 92 1010.2
20260901095624 58 192 1.0 2.0 0.00 0.00 0.00 92 1010.3
20260901095125 58 192 0.0 4.0 0.00 0.00 0.00 92 1010.3
20260901094425 58 188 2.0 4.0 0.00 0.00 0.00 92 1010.2
20260901093924 58 223 3.0 3.0 0.00 0.00 0.00 92 1010.2
20260901093424 58 232 2.0 3.0 0.00 0.00 0.00 92 1010.1
20260901092925 58 186 1.0 3.0 0.00 0.00 0.00 92 1010.1
20260901092425 58 181 3.0 4.0 0.00 0.00 0.00 92 1010.1
20260901091924 58 181 3.0 5.0 0.00 0.00 0.00 92 1010.2
20260901091225 58 199 3.0 5.0 0.00 0.00 0.00 93 1010.1
20260901090724 58 193 3.0 5.0 0.00 0.00 0.00 93 1010.2
20260901090225 58 194 2.0 4.0 0.00 0.00 0.00 93 1010.2
20260901085724 58 215 4.0 5.0 0.00 0.00 0.00 94 1010.2
20260901085224 57 202 2.0 5.0 0.00 0.00 0.00 94 1010.1
20260901084725 57 204 2.0 3.0 0.00 0.00 0.00 94 1010.2
20260901084225 57 230 2.0 2.0 0.00 0.00 0.00 95 1010.2
20260901083724 57 230 1.0 2.0 0.00 0.00 0.00 95 1010.2
20260901083224 57 231 1.0 1.0 0.00 0.00 0.00 96 1010.3
20260901082724 56 231 0.0 1.0 0.00 0.00 0.00 96 1010.3
20260901082224 56 231 0.0 1.0 0.00 0.00 0.00 96 1010.3
20260901081525 56 231 1.0 1.0 0.00 0.00 0.00 95 1010.2
20260901080824 56 231 0.0 1.0 0.00 0.00 0.00 95 1010.2
20260901080125 56 231 1.0 1.0 0.00 0.00 0.00 95 1010.1
20260901075624 56 231 0.0 0.0 0.00 0.00 0.00 95 1010.0
20260901075124 56 231 0.0 0.0 0.00 0.00 0.00 94 1010.0
20260901074625 56 231 0.0 0.0 0.00 0.00 0.00 94 1010.0
20260901073924 56 231 0.0 1.0 0.00 0.00 0.00 94 1009.9
20260901073425 56 231 0.0 1.0 0.00 0.00 0.00 94 1009.8
20260901072924 56 231 0.0 2.0 0.00 0.00 0.00 94 1009.6
20260901072424 56 231 1.0 2.0 0.00 0.00 0.00 94 1009.6
20260901071925 56 231 1.0 2.0 0.00 0.00 0.00 94 1009.5
20260901071424 56 231 2.0 2.0 0.00 0.00 0.00 93 1009.5
20260901070925 57 231 2.0 3.0 0.00 0.00 0.00 93 1009.4
20260901070425 57 231 1.0 3.0 0.00 0.00 0.00 93 1009.4
20260901065724 57 231 1.0 2.0 0.00 0.00 0.00 93 1009.4
20260901065225 57 231 2.0 6.0 0.00 0.00 0.00 93 1009.3
20260901064725 57 232 1.0 6.0 0.00 0.00 0.00 92 1009.3
20260901064024 57 206 4.0 4.0 0.00 0.00 0.00 92 1009.3
20260901063524 57 190 2.0 4.0 0.00 0.00 0.00 92 1009.2
20260901062824 58 198 2.0 4.0 0.00 0.00 0.00 92 1009.3
20260901062324 58 209 1.0 4.0 0.00 0.00 0.00 91 1009.3
20260901061624 58 192 1.0 4.0 0.00 0.00 0.00 91 1009.2
20260901060925 58 202 4.0 4.0 0.00 0.00 0.00 90 1009.3
20260901060424 58 190 2.0 6.0 0.00 0.00 0.00 90 1009.3
20260901055924 58 199 2.0 6.0 0.00 0.00 0.00 90 1009.3
20260901055424 59 198 1.0 3.0 0.00 0.00 0.00 89 1009.2
20260901054924 59 200 1.0 5.0 0.00 0.00 0.00 89 1009.3
20260901054424 59 202 2.0 5.0 0.00 0.00 0.00 89 1009.3
20260901053924 59 205 5.0 5.0 0.00 0.00 0.00 88 1009.4
20260901053424 60 196 2.0 3.0 0.00 0.00 0.00 87 1009.3
20260901052925 60 195 3.0 5.0 0.00 0.00 0.00 87 1009.3
20260901052424 60 194 3.0 5.0 0.00 0.00 0.00 87 1009.2
20260901051925 60 204 2.0 4.0 0.00 0.00 0.00 87 1009.2
20260901051330 60 197 4.0 5.0 0.00 0.00 0.00 86 1009.2
20260901050824 61 192 2.0 5.0 0.00 0.00 0.00 86 1009.2
20260901050324 61 199 5.0 5.0 0.00 0.00 0.00 85 1009.2
20260901045824 61 188 2.0 4.0 0.00 0.00 0.00 85 1009.1
20260901045324 62 195 4.0 5.0 0.00 0.00 0.00 85 1009.0